"Pseudo-MPEC" for P10IoDr

Created 2018 Jul 24 11:18:06 UT using Find_Orb

Click here for an explanation of pseudo-MPECs

 
 Astrometry: 
     P10IoDr  C2018 07 11E)Astrometry:ZW\M8:uO1taf6o91`@^q)NI]wd\XU;57h'+='4NF51
     P10IoDr  C2018 07 11v;lE.#+N;W2iZIgD`G;bk,+M8HTLwVl#G-)vd;eDdRBJx?CLGpJKF51
     P10IoDr  C2018 07 11DG[!m^HG?/P;skZq0redacted;g94A7T][Z_QR/v08w#v$o/Ud]EF51
     P10IoDr KC2018 07 12Td2nyS_-jtg)Ls8(o@GYqG^@09+mm*XJseeWI/m*+w0XilMl3N%^H21
     P10IoDr KC2018 07 12Oc$:Vc-Jmc\c39fwWZ[1ktT]!J*bYCgMP[$xx`a2SNcdbDZMi.'cH21
     P10IoDr KC2018 07 12(Qm.m'+ZT+eicch#$TVRqtn;TA^bIdL+o?mcxwU^xG%f%^tNEOCPH21

Station data:
(F51) Pan-STARRS 1, Haleakala  (N20.707235 W156.255910)  US/Hawaii.
   Observers N. Primak, A. Schultz, S. Watters, J. Thiel, T. Goggia. Measurer
   PS1 Science Consortium. 1.8-m Ritchey-Chrétien + CCD.
(H21) Astronomical Research Observatory, Westfield  (N39.483057 W87.968270)
   US/Illinois. 0.76-m f/3.0 astrograph + CCD.

Orbital elements:  P10IoDr
   Perihelion 2017 Jul 4.664671 +/- 747 TT = 15:57:07 (JD 2457939.164671)
Epoch 2018 Jul 12.0 TT = JDT 2458311.5   Earth MOID: 0.2665   Ju: 0.5628
M  74.21141 +/- 60                  (J2000 ecliptic)          AutoNEOCP
n   0.19931339 +/- 0.255            Peri.   22.15589 +/- 27
a   2.90254116 +/- 2.48             Node   176.86858 +/- 9
e   0.5719106 +/- 0.154             Incl.   23.69951 +/- 21
P   4.95                   H 16.5   G  0.15   U 11.9  SR
q 1.24254692 +/- 1.96    Q 4.56253540 +/- 3
From 6 observations 2018 July 11-12 (19.1 hr); mean residual 0".33
Residuals in arcseconds: 
180711 F51  .38+  .34-    180711 F51  .14-  .78+    180712 H21  .03+  .02+    
180711 F51  .26-  .43-    180712 H21  .28+  .02+    180712 H21  .30-  .06-    

Ephemerides (geocentric):
Date (UTC) HH   RA              Dec         delta   r     elong  mag " sig PA
---- -- -- --  -------------   -----------  ------ ------ -----  --- ---- ---
2018 07 24 11  23 16 56.206   +06 00 02.30  2.6903 3.4121 128.1 22.1 1344 151
2018 07 24 12  23 16 55.194   +05 59 52.77  2.6900 3.4123 128.2 22.1 1354 151
2018 07 24 13  23 16 54.181   +05 59 43.21  2.6897 3.4125 128.2 22.1 1364 151
2018 07 24 14  23 16 53.166   +05 59 33.64  2.6894 3.4127 128.2 22.1 1374 151
2018 07 24 15  23 16 52.149   +05 59 24.05  2.6891 3.4129 128.3 22.1 1384 151
2018 07 24 16  23 16 51.131   +05 59 14.45  2.6888 3.4131 128.3 22.1 1394 151
2018 07 24 17  23 16 50.110   +05 59 04.83  2.6885 3.4133 128.4 22.1 1405 151
2018 07 24 18  23 16 49.088   +05 58 55.19  2.6882 3.4135 128.4 22.1 1415 151
2018 07 24 19  23 16 48.063   +05 58 45.53  2.6879 3.4137 128.5 22.1 1425 151
2018 07 24 20  23 16 47.037   +05 58 35.86  2.6877 3.4139 128.5 22.1 1436 151
2018 07 24 21  23 16 46.009   +05 58 26.16  2.6874 3.4141 128.5 22.1 1446 151
2018 07 24 22  23 16 44.979   +05 58 16.46  2.6871 3.4143 128.6 22.1 1456 151
2018 07 24 23  23 16 43.947   +05 58 06.73  2.6868 3.4145 128.6 22.1 1467 151
2018 07 25 00  23 16 42.914   +05 57 56.99  2.6865 3.4147 128.7 22.1 1477 151
2018 07 25 01  23 16 41.878   +05 57 47.23  2.6862 3.4149 128.7 22.1 1488 151
2018 07 25 02  23 16 40.841   +05 57 37.45  2.6859 3.4150 128.8 22.1 1499 151
2018 07 25 03  23 16 39.801   +05 57 27.65  2.6856 3.4152 128.8 22.1 1509 151
2018 07 25 04  23 16 38.760   +05 57 17.84  2.6854 3.4154 128.9 22.1 1520 151
2018 07 25 05  23 16 37.717   +05 57 08.01  2.6851 3.4156 128.9 22.1 1531 151
2018 07 25 06  23 16 36.672   +05 56 58.17  2.6848 3.4158 128.9 22.1 1542 151
2018 07 25 07  23 16 35.626   +05 56 48.30  2.6845 3.4160 129.0 22.1 1553 151
2018 07 25 08  23 16 34.577   +05 56 38.42  2.6842 3.4162 129.0 22.1 1563 151
2018 07 25 09  23 16 33.527   +05 56 28.52  2.6839 3.4164 129.1 22.1 1574 151
2018 07 25 10  23 16 32.474   +05 56 18.61  2.6836 3.4166 129.1 22.1 1585 151
2018 07 25 11  23 16 31.420   +05 56 08.67  2.6834 3.4168 129.2 22.1 1596 151
2018 07 25 12  23 16 30.364   +05 55 58.73  2.6831 3.4170 129.2 22.1 1608 151
2018 07 25 13  23 16 29.306   +05 55 48.76  2.6828 3.4172 129.3 22.1 1619 151
2018 07 25 14  23 16 28.247   +05 55 38.77  2.6825 3.4174 129.3 22.1 1630 151
2018 07 25 15  23 16 27.185   +05 55 28.77  2.6822 3.4176 129.3 22.1 1641 151
2018 07 25 16  23 16 26.122   +05 55 18.75  2.6819 3.4178 129.4 22.1 1652 151
2018 07 25 17  23 16 25.057   +05 55 08.72  2.6816 3.4180 129.4 22.1 1664 151
2018 07 25 18  23 16 23.989   +05 54 58.66  2.6814 3.4182 129.5 22.1 1675 151
2018 07 25 19  23 16 22.921   +05 54 48.59  2.6811 3.4184 129.5 22.1 1687 151
2018 07 25 20  23 16 21.850   +05 54 38.51  2.6808 3.4185 129.6 22.1 1698 151
2018 07 25 21  23 16 20.777   +05 54 28.40  2.6805 3.4187 129.6 22.1 1710 151
2018 07 25 22  23 16 19.703   +05 54 18.28  2.6802 3.4189 129.6 22.1 1721 151
2018 07 25 23  23 16 18.626   +05 54 08.14  2.6800 3.4191 129.7 22.1 1733 151
2018 07 26 00  23 16 17.548   +05 53 57.98  2.6797 3.4193 129.7 22.1 1744 151
2018 07 26 01  23 16 16.468   +05 53 47.81  2.6794 3.4195 129.8 22.1 1756 151
2018 07 26 02  23 16 15.386   +05 53 37.62  2.6791 3.4197 129.8 22.1 1768 151
2018 07 26 03  23 16 14.302   +05 53 27.41  2.6788 3.4199 129.9 22.1 1780 151
2018 07 26 04  23 16 13.217   +05 53 17.19  2.6785 3.4201 129.9 22.1 1792 151
2018 07 26 05  23 16 12.129   +05 53 06.94  2.6783 3.4203 130.0 22.1 1804 151
2018 07 26 06  23 16 11.040   +05 52 56.68  2.6780 3.4205 130.0 22.1 1815 151
2018 07 26 07  23 16 09.949   +05 52 46.41  2.6777 3.4207 130.0 22.1 1827 151
2018 07 26 08  23 16 08.856   +05 52 36.11  2.6774 3.4209 130.1 22.1 1840 151
2018 07 26 09  23 16 07.761   +05 52 25.80  2.6772 3.4211 130.1 22.1 1852 151
2018 07 26 10  23 16 06.665   +05 52 15.47  2.6769 3.4213 130.2 22.1 1864 151